Evansville, IN

3:48 PM CST on February 19, 2017 (GMT -0600)
Evansville Regional

Weather History for KEVV - March, 2012

Change the Weather History Date:

Friday, March 23, 2012

  Actual Average Record
Temperature  
Mean Temperature 63 °F 48 °F  
Max Temperature 77 °F 59 °F 84 °F (1910)
Min Temperature 49 °F 37 °F 16 °F (1968)
Degree Days  
Heating Degree Days 2 17  
Month to date heating degree days 198 468  
Since 1 July heating degree days 3227 4042  
Cooling Degree Days 0 0  
Month to date cooling degree days 43 0  
Year to date cooling degree days 43 0  
Growing Degree Days 16 (Base 50)    
Moisture  
Dew Point 55 °F    
Average Humidity 64    
Maximum Humidity 84    
Minimum Humidity 43    
Precipitation  
Precipitation 0.27 in 0.15 in 1.03 in (1999)
Month to date precipitation 2.19 3.06  
Year to date precipitation 7.33 9.33  
Snow  
Snow 0.00 in 0.00 in 2.40 in (1974)
Month to date snowfall T 0.9  
Since 1 July snowfall 0.5 11.6  
Snow Depth 0.00 in    
Sea Level Pressure  
Sea Level Pressure 29.89 in    
Wind  
Wind Speed 8 mph (SSW)    
Max Wind Speed 35 mph    
Max Gust Speed 54 mph    
Visibility 9 miles    
Events Rain , Thunderstorm    
T = Trace of Precipitation, MM = Missing Value Source: NWS Daily Summary

Daily Weather History Graph

Daily Weather History Graph

Search for Another Location

Airport or City:

Trip Planner

Search our weather history database for the weather conditions in past years. The results will help you decide how hot, cold, wet, or windy it might be!

Date:

Astronomy

Mar. 23, 2012 Rise Set
Actual Time 6:48 AM CDT 7:05 PM CDT
Civil Twilight 6:21 AM CDT 7:31 PM CDT
Nautical Twilight 5:51 AM CDT 8:02 PM CDT
Astronomical Twilight 5:19 AM CDT 8:34 PM CDT
Moon 6:58 AM CDT (3/23) 8:25 PM CDT (3/23)
Length of Visible Light 13h 09m
Length of Day
12h 17m
New Moon, 1% of the Moon is Illuminated
Mar 23
New Moon
Mar 30
First Quarter
Apr 6
Full
Apr 13
Last Quarter
Apr 21
New

Hourly Weather History & Observations

Time (CDT) Temp. Dew Point Humidity Pressure Visibility Wind Dir Wind Speed Gust Speed Precip Events Conditions
12:54 AM 64.0 °F 57.9 °F 80% 30.01 in 10.0 mi SSE 3.5 mph - N/A   Mostly Cloudy
1:54 AM 64.9 °F 59.0 °F 81% 30.00 in 10.0 mi SE 3.5 mph - N/A   Overcast
2:54 AM 64.9 °F 59.0 °F 81% 29.99 in 10.0 mi SSE 3.5 mph - N/A   Overcast
3:54 AM 64.9 °F 59.0 °F 81% 29.98 in 10.0 mi SSE 5.8 mph - N/A   Overcast
4:22 AM 66.2 °F 59.0 °F 78% 29.98 in 10.0 mi South 5.8 mph - N/A   Overcast
4:54 AM 64.9 °F 59.0 °F 81% 29.97 in 10.0 mi South 5.8 mph - N/A   Overcast
5:54 AM 64.9 °F 59.0 °F 81% 29.96 in 10.0 mi South 4.6 mph - 0.00 in   Overcast
6:03 AM 64.4 °F 59.0 °F 83% 29.97 in 10.0 mi South 4.6 mph - N/A   Overcast
6:16 AM 64.4 °F 59.0 °F 83% 29.97 in 10.0 mi South 3.5 mph - N/A   Overcast
6:54 AM 64.0 °F 59.0 °F 84% 29.95 in 10.0 mi South 4.6 mph - N/A   Mostly Cloudy
7:54 AM 64.0 °F 59.0 °F 84% 29.95 in 10.0 mi East 5.8 mph - N/A   Mostly Cloudy
8:54 AM 66.0 °F 59.0 °F 78% 29.95 in 10.0 mi SSE 8.1 mph - N/A   Overcast
9:04 AM 66.2 °F 60.8 °F 83% 29.95 in 10.0 mi South 8.1 mph - N/A   Mostly Cloudy
9:54 AM 66.0 °F 59.0 °F 78% 29.95 in 10.0 mi SW 11.5 mph - N/A   Mostly Cloudy
10:54 AM 70.0 °F 57.0 °F 63% 29.93 in 10.0 mi WSW 8.1 mph - N/A   Partly Cloudy
11:54 AM 70.0 °F 57.0 °F 63% 29.89 in 10.0 mi Calm Calm - N/A   Partly Cloudy
12:54 PM 73.9 °F 57.0 °F 55% 29.85 in 10.0 mi SSE 6.9 mph - N/A   Scattered Clouds
1:54 PM 75.9 °F 52.0 °F 43% 29.81 in 10.0 mi South 13.8 mph 21.9 mph N/A   Partly Cloudy
2:45 PM 69.8 °F 53.6 °F 56% 29.83 in 2.0 mi SW 33.4 mph 54.1 mph 0.02 in Rain , Thunderstorm Thunderstorms and Rain
2:48 PM 62.6 °F 53.6 °F 72% 29.81 in 0.8 mi West 9.2 mph 54.1 mph 0.08 in Rain , Thunderstorm Thunderstorms and Rain
2:54 PM 60.1 °F 52.0 °F 75% 29.81 in 7.0 mi West 4.6 mph 54.1 mph 0.27 in   Mostly Cloudy
2:56 PM 60.8 °F 53.6 °F 77% 29.81 in 7.0 mi West 6.9 mph - 0.00 in Rain , Thunderstorm Light Thunderstorms and Rain
3:10 PM 64.4 °F 57.2 °F 77% 29.80 in 7.0 mi Variable 3.5 mph - 0.00 in   Mostly Cloudy
3:54 PM 71.1 °F 57.9 °F 63% 29.79 in 10.0 mi WSW 15.0 mph - 0.00 in   Clear
4:54 PM 70.0 °F 55.9 °F 61% 29.78 in 10.0 mi SW 12.7 mph - N/A   Scattered Clouds
5:54 PM 71.1 °F 52.0 °F 51% 29.78 in 10.0 mi SW 10.4 mph - N/A   Mostly Cloudy
6:54 PM 66.0 °F 52.0 °F 60% 29.80 in 10.0 mi WSW 12.7 mph - N/A   Scattered Clouds
7:54 PM 62.1 °F 46.9 °F 58% 29.84 in 10.0 mi WSW 9.2 mph - N/A   Clear
8:54 PM 61.0 °F 45.0 °F 56% 29.83 in 10.0 mi WSW 16.1 mph 21.9 mph N/A   Clear
9:54 PM 59.0 °F 44.1 °F 58% 29.86 in 10.0 mi WSW 11.5 mph - N/A   Mostly Cloudy
10:54 PM 57.0 °F 46.0 °F 67% 29.86 in 10.0 mi West 6.9 mph - 0.00 in   Mostly Cloudy
11:54 PM 54.0 °F 46.0 °F 75% 29.85 in 10.0 mi Calm Calm - N/A   Partly Cloudy